FENGYUN 1C DEB, 36162

Orbit data source: Space-Track

FENGYUN 1C DEB, 36162 is space debris in SSO originally from a launch on Mon, 10 May 1999 UTC launched from the Taiyaun Space Center, China (TSC). Fengyun 1C debris stems from the Chinese weather satellite Fengyun-1C, which was intentionally destroyed by a Chinese anti-satellite missile in 2007. This event dramatically increased the amount of space debris, with thousands of trackable fragments posing hazards to satellites and human spaceflight. The Fengyun 1C debris cloud has become a focal point in discussions about space sustainability and the need for international regulations to prevent the creation of new debris.

Loading next visibility...
Identifier
36162, 1999-025DSK
Orbit
SSO
Country
Flag of CNCN / PRC
Related business
Manufacturer
Unknown
Mission
Spacecraft
Bus & Motor
Unknown
Mass
Unknown
Launch date (UTC)
1999-05-10 (27 years ago)
Launch vehicle
Unknown
Launch site
Taiyaun Space Center, China (TSC)
Object type
Payload
Rocket body
Debris
Shape & HBR
Unknown shape, 1.1 m
Radar Cross Section
Medium (>0.1 m² and <1 m²)

Expand to show TLE details & history
Last TLE update: 1 week ago

TLE from 1 week ago
0 FENGYUN 1C DEB
1 36162U 99025DSK 26158.17859288  .00003373  00000-0  16261-2 0  9997
2 36162  97.6174 293.5181 0245239 332.5425  26.2962 14.04715062729973
Epoch: 2026-06-07T04:17Z
TLE epoch observation values (Epoch: 2026-06-07T04:17:10.424Z)
Latitude
-0.00003°
Longitude
-26.35886°
Altitude
721.773 km
Speed
7.576 km/s
True Right ascension
19h 34m 04s
True Declination
0° 00' 00"
Sunlit
Object was in full shadow at epoch
Visualization orbit readout
Latitude
Unknown
Longitude
Unknown
Altitude
Unknown
Speed
Unknown
Apparent Right ascension
Unknown
Apparent Declination
Unknown
Sunlit
N/A
Visualization observer readout
Local Sidereal Time
02:49:37
Azimuth
Unknown
Elevation
Unknown
Doppler factor
Unknown
Orbital elements
Apogee altitude
1,052.508 km
Perigee altitude
696.775 km
Semi-major axis
7,252.778 km
Eccentricity
0.02452
Inclination
97.6174°
RAAN
293.5181°
Arg. of periapsis
332.5425°
True anomaly
27.5762°
Mean anomaly
26.2962°
Eccentric anomaly
26.93264°
Mean motion
3.51388 °/min
Orbital period
102.45 mins
BSTAR
0.0016261
Loading maneuver chart data...
Computing Atmospheric mass density...

Documentation

Showing up to 5 results
|